Year,Month,Day,Hour,Minute,Value (Times are PST for temperature in C)
2015,02,18,00,00,3.50
2015,02,18,00,01,3.50
2015,02,18,00,02,3.50
2015,02,18,00,03,3.50
2015,02,18,00,04,3.50
2015,02,18,00,05,3.50
2015,02,18,00,06,3.50
2015,02,18,00,07,3.40
2015,02,18,00,08,3.40
2015,02,18,00,09,3.40
2015,02,18,00,10,3.40
2015,02,18,00,11,3.40
2015,02,18,00,12,3.40
2015,02,18,00,13,3.40
2015,02,18,00,14,3.40
2015,02,18,00,15,3.40
2015,02,18,00,16,3.40
2015,02,18,00,17,3.40
2015,02,18,00,18,3.40
2015,02,18,00,19,3.40
2015,02,18,00,20,3.30
2015,02,18,00,21,3.30
2015,02,18,00,22,3.30
2015,02,18,00,23,3.30
2015,02,18,00,24,3.30
2015,02,18,00,25,3.30
2015,02,18,00,26,3.30
2015,02,18,00,27,3.30
2015,02,18,00,28,3.30
2015,02,18,00,29,3.30
2015,02,18,00,30,3.30
2015,02,18,00,31,3.30
2015,02,18,00,32,3.30
2015,02,18,00,33,3.20
2015,02,18,00,34,3.30
2015,02,18,00,35,3.20
2015,02,18,00,36,3.20
2015,02,18,00,37,3.20
2015,02,18,00,38,3.20
2015,02,18,00,39,3.20
2015,02,18,00,40,3.20
2015,02,18,00,41,3.20
2015,02,18,00,42,3.20
2015,02,18,00,43,3.20
2015,02,18,00,44,3.20
2015,02,18,00,45,3.20
2015,02,18,00,46,3.20
2015,02,18,00,47,3.20
2015,02,18,00,48,3.20
2015,02,18,00,49,3.20
2015,02,18,00,50,3.20
2015,02,18,00,51,3.10
2015,02,18,00,52,3.20
2015,02,18,00,53,3.10
2015,02,18,00,54,3.10
2015,02,18,00,55,3.10
2015,02,18,00,56,3.10
2015,02,18,00,57,3.10
2015,02,18,00,58,3.10
2015,02,18,00,59,3.10
2015,02,18,01,00,3.10
2015,02,18,01,01,3.10
2015,02,18,01,02,3.10
2015,02,18,01,03,3.10
2015,02,18,01,04,3.10
2015,02,18,01,05,3.10
2015,02,18,01,06,3.10
2015,02,18,01,07,3.10
2015,02,18,01,08,3.10
2015,02,18,01,09,3.00
2015,02,18,01,10,3.00
2015,02,18,01,11,3.00
2015,02,18,01,12,3.00
2015,02,18,01,13,3.00
2015,02,18,01,14,3.00
2015,02,18,01,15,3.00
2015,02,18,01,16,3.00
2015,02,18,01,17,3.00
2015,02,18,01,18,3.00
2015,02,18,01,19,3.00
2015,02,18,01,20,3.00
2015,02,18,01,21,3.00
2015,02,18,01,22,3.00
2015,02,18,01,23,3.00
2015,02,18,01,24,3.00
2015,02,18,01,25,3.00
2015,02,18,01,26,3.00
2015,02,18,01,27,3.00
2015,02,18,01,28,3.00
2015,02,18,01,29,3.00
2015,02,18,01,30,3.00
2015,02,18,01,31,3.00
2015,02,18,01,32,3.00
2015,02,18,01,33,3.00
2015,02,18,01,34,3.00
2015,02,18,01,35,3.00
2015,02,18,01,36,3.10
2015,02,18,01,37,3.10
2015,02,18,01,38,3.10
2015,02,18,01,39,3.00
2015,02,18,01,40,3.00
2015,02,18,01,41,3.00
2015,02,18,01,42,3.00
2015,02,18,01,43,3.00
2015,02,18,01,44,3.00
2015,02,18,01,45,3.00
2015,02,18,01,46,3.00
2015,02,18,01,47,3.00
2015,02,18,01,48,3.00
2015,02,18,01,49,2.90
2015,02,18,01,50,2.90
2015,02,18,01,51,2.90
2015,02,18,01,52,2.90
2015,02,18,01,53,2.90
2015,02,18,01,54,2.90
2015,02,18,01,55,2.80
2015,02,18,01,56,2.80
2015,02,18,01,57,2.80
2015,02,18,01,58,2.80
2015,02,18,01,59,2.80
2015,02,18,02,00,2.80
2015,02,18,02,01,2.80
2015,02,18,02,02,2.80
2015,02,18,02,03,2.80
2015,02,18,02,04,2.80
2015,02,18,02,05,2.80
2015,02,18,02,06,2.80
2015,02,18,02,07,2.80
2015,02,18,02,08,2.80
2015,02,18,02,09,2.80
2015,02,18,02,10,2.80
2015,02,18,02,11,2.80
2015,02,18,02,12,2.80
2015,02,18,02,13,2.80
2015,02,18,02,14,2.80
2015,02,18,02,15,2.80
2015,02,18,02,16,2.80
2015,02,18,02,17,2.80
2015,02,18,02,18,2.80
2015,02,18,02,19,2.80
2015,02,18,02,20,2.80
2015,02,18,02,21,2.80
2015,02,18,02,22,2.80
2015,02,18,02,23,2.80
2015,02,18,02,24,2.70
2015,02,18,02,25,2.70
2015,02,18,02,26,2.70
2015,02,18,02,27,2.70
2015,02,18,02,28,2.70
2015,02,18,02,29,2.70
2015,02,18,02,30,2.70
2015,02,18,02,31,2.70
2015,02,18,02,32,2.70
2015,02,18,02,33,2.70
2015,02,18,02,34,2.70
2015,02,18,02,35,2.70
2015,02,18,02,36,2.70
2015,02,18,02,37,2.70
2015,02,18,02,38,2.70
2015,02,18,02,39,2.70
2015,02,18,02,40,2.70
2015,02,18,02,41,2.70
2015,02,18,02,42,2.70
2015,02,18,02,43,2.70
2015,02,18,02,44,2.70
2015,02,18,02,45,2.70
2015,02,18,02,46,2.70
2015,02,18,02,47,2.70
2015,02,18,02,48,2.70
2015,02,18,02,49,2.70
2015,02,18,02,50,2.70
2015,02,18,02,51,2.60
2015,02,18,02,52,2.60
2015,02,18,02,53,2.60
2015,02,18,02,54,2.60
2015,02,18,02,55,2.60
2015,02,18,02,56,2.60
2015,02,18,02,57,2.60
2015,02,18,02,58,2.60
2015,02,18,02,59,2.60
2015,02,18,03,00,2.60
2015,02,18,03,01,2.60
2015,02,18,03,02,2.60
2015,02,18,03,03,2.60
2015,02,18,03,04,2.60
2015,02,18,03,05,2.60
2015,02,18,03,06,2.60
2015,02,18,03,07,2.60
2015,02,18,03,08,2.60
2015,02,18,03,09,2.60
2015,02,18,03,10,2.60
2015,02,18,03,11,2.60
2015,02,18,03,12,2.60
2015,02,18,03,13,2.50
2015,02,18,03,14,2.50
2015,02,18,03,15,2.50
2015,02,18,03,16,2.50
2015,02,18,03,17,2.50
2015,02,18,03,18,2.50
2015,02,18,03,19,2.50
2015,02,18,03,20,2.50
2015,02,18,03,21,2.50
2015,02,18,03,22,2.40
2015,02,18,03,23,2.40
2015,02,18,03,24,2.40
2015,02,18,03,25,2.40
2015,02,18,03,26,2.40
2015,02,18,03,27,2.40
2015,02,18,03,28,2.40
2015,02,18,03,29,2.40
2015,02,18,03,30,2.40
2015,02,18,03,31,2.40
2015,02,18,03,32,2.40
2015,02,18,03,33,2.40
2015,02,18,03,34,2.40
2015,02,18,03,35,2.40
2015,02,18,03,36,2.40
2015,02,18,03,37,2.40
2015,02,18,03,38,2.40
2015,02,18,03,39,2.40
2015,02,18,03,40,2.40
2015,02,18,03,41,2.40
2015,02,18,03,42,2.40
2015,02,18,03,43,2.40
2015,02,18,03,44,2.40
2015,02,18,03,45,2.40
2015,02,18,03,46,2.40
2015,02,18,03,47,2.30
2015,02,18,03,48,2.30
2015,02,18,03,49,2.30
2015,02,18,03,50,2.30
2015,02,18,03,51,2.30
2015,02,18,03,52,2.30
2015,02,18,03,53,2.30
2015,02,18,03,54,2.30
2015,02,18,03,55,2.30
2015,02,18,03,56,2.30
2015,02,18,03,57,2.30
2015,02,18,03,58,2.30
2015,02,18,03,59,2.30
2015,02,18,04,00,2.30
2015,02,18,04,01,2.30
2015,02,18,04,02,2.30
2015,02,18,04,03,2.30
2015,02,18,04,04,2.30
2015,02,18,04,05,2.30
2015,02,18,04,06,2.30
2015,02,18,04,07,2.30
2015,02,18,04,08,2.30
2015,02,18,04,09,2.30
2015,02,18,04,10,2.30
2015,02,18,04,11,2.30
2015,02,18,04,12,2.30
2015,02,18,04,13,2.30
2015,02,18,04,14,2.30
2015,02,18,04,15,2.30
2015,02,18,04,16,2.30
2015,02,18,04,17,2.30
2015,02,18,04,18,2.30
2015,02,18,04,19,2.30
2015,02,18,04,20,2.30
2015,02,18,04,21,2.40
2015,02,18,04,22,2.40
2015,02,18,04,23,2.40
2015,02,18,04,24,2.50
2015,02,18,04,25,2.50
2015,02,18,04,26,2.50
2015,02,18,04,27,2.40
2015,02,18,04,28,2.40
2015,02,18,04,29,2.40
2015,02,18,04,30,2.40
2015,02,18,04,31,2.40
2015,02,18,04,32,2.40
2015,02,18,04,33,2.40
2015,02,18,04,34,2.40
2015,02,18,04,35,2.40
2015,02,18,04,36,2.40
2015,02,18,04,37,2.40
2015,02,18,04,38,2.50
2015,02,18,04,39,2.50
2015,02,18,04,40,2.50
2015,02,18,04,41,2.60
2015,02,18,04,42,2.60
2015,02,18,04,43,2.60
2015,02,18,04,44,2.60
2015,02,18,04,45,2.60
2015,02,18,04,46,2.60
2015,02,18,04,47,2.60
2015,02,18,04,48,2.60
2015,02,18,04,49,2.60
2015,02,18,04,50,2.60
2015,02,18,04,51,2.60
2015,02,18,04,52,2.60
2015,02,18,04,53,2.60
2015,02,18,04,54,2.60
2015,02,18,04,55,2.70
2015,02,18,04,56,2.60
2015,02,18,04,57,2.70
2015,02,18,04,58,2.60
2015,02,18,04,59,2.70
2015,02,18,05,00,2.70
2015,02,18,05,01,2.70
2015,02,18,05,02,2.60
2015,02,18,05,03,2.70
2015,02,18,05,04,2.60
2015,02,18,05,05,2.60
2015,02,18,05,06,2.60
2015,02,18,05,07,2.60
2015,02,18,05,08,2.60
2015,02,18,05,09,2.60
2015,02,18,05,10,2.50
2015,02,18,05,11,2.50
2015,02,18,05,12,2.50
2015,02,18,05,13,2.50
2015,02,18,05,14,2.50
2015,02,18,05,15,2.50
2015,02,18,05,16,2.50
2015,02,18,05,17,2.40
2015,02,18,05,18,2.40
2015,02,18,05,19,2.40
2015,02,18,05,20,2.40
2015,02,18,05,21,2.40
2015,02,18,05,22,2.40
2015,02,18,05,23,2.40
2015,02,18,05,24,2.40
2015,02,18,05,25,2.40
2015,02,18,05,26,2.40
2015,02,18,05,27,2.40
2015,02,18,05,28,2.40
2015,02,18,05,29,2.40
2015,02,18,05,30,2.40
2015,02,18,05,31,2.40
2015,02,18,05,32,2.30
2015,02,18,05,33,2.30
2015,02,18,05,34,2.30
2015,02,18,05,35,2.30
2015,02,18,05,36,2.30
2015,02,18,05,37,2.30
2015,02,18,05,38,2.30
2015,02,18,05,39,2.20
2015,02,18,05,40,2.20
2015,02,18,05,41,2.20
2015,02,18,05,42,2.20
2015,02,18,05,43,2.20
2015,02,18,05,44,2.20
2015,02,18,05,45,2.20
2015,02,18,05,46,2.20
2015,02,18,05,47,2.20
2015,02,18,05,48,2.20
2015,02,18,05,49,2.20
2015,02,18,05,50,2.20
2015,02,18,05,51,2.20
2015,02,18,05,52,2.20
2015,02,18,05,53,2.20
2015,02,18,05,54,2.20
2015,02,18,05,55,2.20
2015,02,18,05,56,2.20
2015,02,18,05,57,2.20
2015,02,18,05,58,2.20
2015,02,18,05,59,2.20
2015,02,18,06,00,2.20
2015,02,18,06,01,2.20
2015,02,18,06,02,2.20
2015,02,18,06,03,2.20
2015,02,18,06,04,2.20
2015,02,18,06,05,2.20
2015,02,18,06,06,2.20
2015,02,18,06,07,2.10
2015,02,18,06,08,2.10
2015,02,18,06,09,2.10
2015,02,18,06,10,2.10
2015,02,18,06,11,2.10
2015,02,18,06,12,2.10
2015,02,18,06,13,2.00
2015,02,18,06,14,2.00
2015,02,18,06,15,2.00
2015,02,18,06,16,2.00
2015,02,18,06,17,2.00
2015,02,18,06,18,1.90
2015,02,18,06,19,1.90
2015,02,18,06,20,1.90
2015,02,18,06,21,1.90
2015,02,18,06,22,1.90
2015,02,18,06,23,1.90
2015,02,18,06,24,1.90
2015,02,18,06,25,1.90
2015,02,18,06,26,1.90
2015,02,18,06,27,1.80
2015,02,18,06,28,1.80
2015,02,18,06,29,1.80
2015,02,18,06,30,1.80
2015,02,18,06,31,1.80
2015,02,18,06,32,1.80
2015,02,18,06,33,1.80
2015,02,18,06,34,1.80
2015,02,18,06,35,1.80
2015,02,18,06,36,1.80
2015,02,18,06,37,1.80
2015,02,18,06,38,1.80
2015,02,18,06,39,1.70
2015,02,18,06,40,1.70
2015,02,18,06,41,1.70
2015,02,18,06,42,1.70
2015,02,18,06,43,1.70
2015,02,18,06,44,1.70
2015,02,18,06,45,1.70
2015,02,18,06,46,1.60
2015,02,18,06,47,1.60
2015,02,18,06,48,1.60
2015,02,18,06,49,1.60
2015,02,18,06,50,1.60
2015,02,18,06,51,1.60
2015,02,18,06,52,1.60
2015,02,18,06,53,1.60
2015,02,18,06,54,1.50
2015,02,18,06,55,1.50
2015,02,18,06,56,1.50
2015,02,18,06,57,1.50
2015,02,18,06,58,1.50
2015,02,18,06,59,1.40
2015,02,18,07,00,1.40
2015,02,18,07,01,1.40
2015,02,18,07,02,1.40
2015,02,18,07,03,1.40
2015,02,18,07,04,1.40
2015,02,18,07,05,1.40
2015,02,18,07,06,1.40
2015,02,18,07,07,1.40
2015,02,18,07,08,1.30
2015,02,18,07,09,1.30
2015,02,18,07,10,1.40
2015,02,18,07,11,1.40
2015,02,18,07,12,1.40
2015,02,18,07,13,1.40
2015,02,18,07,14,1.30
2015,02,18,07,15,1.30
2015,02,18,07,16,1.30
2015,02,18,07,17,1.30
2015,02,18,07,18,1.30
2015,02,18,07,19,1.30
2015,02,18,07,20,1.30
2015,02,18,07,21,1.30
2015,02,18,07,22,1.30
2015,02,18,07,23,1.40
2015,02,18,07,24,1.40
2015,02,18,07,25,1.40
2015,02,18,07,26,1.40
2015,02,18,07,27,1.40
2015,02,18,07,28,1.40
2015,02,18,07,29,1.50
2015,02,18,07,30,1.50
2015,02,18,07,31,1.50
2015,02,18,07,32,1.50
2015,02,18,07,33,1.60
2015,02,18,07,34,1.60
2015,02,18,07,35,1.60
2015,02,18,07,36,1.60
2015,02,18,07,37,1.60
2015,02,18,07,38,1.60
2015,02,18,07,39,1.70
2015,02,18,07,40,1.70
2015,02,18,07,41,1.70
2015,02,18,07,42,1.70
2015,02,18,07,43,1.70
2015,02,18,07,44,1.70
2015,02,18,07,45,1.70
2015,02,18,07,46,1.70
2015,02,18,07,47,1.70
2015,02,18,07,48,1.70
2015,02,18,07,49,1.70
2015,02,18,07,50,1.70
2015,02,18,07,51,1.80
2015,02,18,07,52,1.80
2015,02,18,07,53,1.80
2015,02,18,07,54,1.80
2015,02,18,07,55,1.80
2015,02,18,07,56,1.80
2015,02,18,07,57,1.80
2015,02,18,07,58,1.80
2015,02,18,07,59,1.90
2015,02,18,08,00,1.90
2015,02,18,08,01,1.90
2015,02,18,08,02,1.90
2015,02,18,08,03,1.90
2015,02,18,08,04,1.90
2015,02,18,08,05,1.90
2015,02,18,08,06,1.90
2015,02,18,08,07,1.90
2015,02,18,08,08,1.90
2015,02,18,08,09,2.00
2015,02,18,08,10,2.00
2015,02,18,08,11,2.00
2015,02,18,08,12,2.00
2015,02,18,08,13,2.00
2015,02,18,08,14,2.00
2015,02,18,08,15,2.00
2015,02,18,08,16,2.10
2015,02,18,08,17,2.10
2015,02,18,08,18,2.10
2015,02,18,08,19,2.10
2015,02,18,08,20,2.10
2015,02,18,08,21,2.10
2015,02,18,08,22,2.10
2015,02,18,08,23,2.10
2015,02,18,08,24,2.10
2015,02,18,08,25,2.20
2015,02,18,08,26,2.20
2015,02,18,08,27,2.20
2015,02,18,08,28,2.20
2015,02,18,08,29,2.20
2015,02,18,08,30,2.20
2015,02,18,08,31,2.30
2015,02,18,08,32,2.30
2015,02,18,08,33,2.30
2015,02,18,08,34,2.30
2015,02,18,08,35,2.30
2015,02,18,08,36,2.40
2015,02,18,08,37,2.40
2015,02,18,08,38,2.40
2015,02,18,08,39,2.50
2015,02,18,08,40,2.50
2015,02,18,08,41,2.50
2015,02,18,08,42,2.60
2015,02,18,08,43,2.60
2015,02,18,08,44,2.60
2015,02,18,08,45,2.60
2015,02,18,08,46,2.70
2015,02,18,08,47,2.70
2015,02,18,08,48,2.70
2015,02,18,08,49,2.70
2015,02,18,08,50,2.70
2015,02,18,08,51,2.70
2015,02,18,08,52,2.70
2015,02,18,08,53,2.70
2015,02,18,08,54,2.80
2015,02,18,08,55,2.80
2015,02,18,08,56,2.80
2015,02,18,08,57,2.80
2015,02,18,08,58,2.80
2015,02,18,08,59,2.80
2015,02,18,09,00,2.80
2015,02,18,09,01,2.80
2015,02,18,09,02,2.90
2015,02,18,09,03,2.90
2015,02,18,09,04,2.90
2015,02,18,09,05,2.90
2015,02,18,09,06,2.90
2015,02,18,09,07,2.90
2015,02,18,09,08,3.00
2015,02,18,09,09,3.00
2015,02,18,09,10,3.00
2015,02,18,09,11,3.10
2015,02,18,09,12,3.10
2015,02,18,09,13,3.10
2015,02,18,09,14,3.10
2015,02,18,09,15,3.20
2015,02,18,09,16,3.20
2015,02,18,09,17,3.20
2015,02,18,09,18,3.20
2015,02,18,09,19,3.20
2015,02,18,09,20,3.20
2015,02,18,09,21,3.30
2015,02,18,09,22,3.30
2015,02,18,09,23,3.30
2015,02,18,09,24,3.30
2015,02,18,09,25,3.30
2015,02,18,09,26,3.30
2015,02,18,09,27,3.30
2015,02,18,09,28,3.40
2015,02,18,09,29,3.40
2015,02,18,09,30,3.40
2015,02,18,09,31,3.40
2015,02,18,09,32,3.50
2015,02,18,09,33,3.50
2015,02,18,09,34,3.50
2015,02,18,09,35,3.60
2015,02,18,09,36,3.50
2015,02,18,09,37,3.60
2015,02,18,09,38,3.60
2015,02,18,09,39,3.60
2015,02,18,09,40,3.60
2015,02,18,09,41,3.60
2015,02,18,09,42,3.70
2015,02,18,09,43,3.70
2015,02,18,09,44,3.70
2015,02,18,09,45,3.70
2015,02,18,09,46,3.70
2015,02,18,09,47,3.70
2015,02,18,09,48,3.70
2015,02,18,09,49,3.70
2015,02,18,09,50,3.70
2015,02,18,09,51,3.70
2015,02,18,09,52,3.80
2015,02,18,09,53,3.80
2015,02,18,09,54,3.80
2015,02,18,09,55,3.80
2015,02,18,09,56,3.80
2015,02,18,09,57,3.80
2015,02,18,09,58,3.90
2015,02,18,09,59,3.90
2015,02,18,10,00,3.90
2015,02,18,10,01,3.90
2015,02,18,10,02,3.90
2015,02,18,10,03,3.90
2015,02,18,10,04,4.00
2015,02,18,10,05,4.00
2015,02,18,10,06,4.00
2015,02,18,10,07,4.10
2015,02,18,10,08,4.10
2015,02,18,10,09,4.10
2015,02,18,10,10,4.10
2015,02,18,10,11,4.20
2015,02,18,10,12,4.20
2015,02,18,10,13,4.20
2015,02,18,10,14,4.20
2015,02,18,10,15,4.20
2015,02,18,10,16,4.20
2015,02,18,10,17,4.20
2015,02,18,10,18,4.30
2015,02,18,10,19,4.30
2015,02,18,10,20,4.30
2015,02,18,10,21,4.30
2015,02,18,10,22,4.40
2015,02,18,10,23,4.40
2015,02,18,10,24,4.40
2015,02,18,10,25,4.40
2015,02,18,10,26,4.40
2015,02,18,10,27,4.40
2015,02,18,10,28,4.40
2015,02,18,10,29,4.50
2015,02,18,10,30,4.50
2015,02,18,10,31,4.50
2015,02,18,10,32,4.60
2015,02,18,10,33,4.60
2015,02,18,10,34,4.60
2015,02,18,10,35,4.70
2015,02,18,10,36,4.70
2015,02,18,10,37,4.70
2015,02,18,10,38,4.80
2015,02,18,10,39,4.80
2015,02,18,10,40,4.90
2015,02,18,10,41,5.00
2015,02,18,10,42,5.10
2015,02,18,10,43,5.10
2015,02,18,10,44,5.20
2015,02,18,10,45,5.20
2015,02,18,10,46,5.30
2015,02,18,10,47,5.30
2015,02,18,10,48,5.40
2015,02,18,10,49,5.50
2015,02,18,10,50,5.50
2015,02,18,10,51,5.60
2015,02,18,10,52,5.60
2015,02,18,10,53,5.70
2015,02,18,10,54,5.80
2015,02,18,10,55,5.80
2015,02,18,10,56,5.90
2015,02,18,10,57,5.90
2015,02,18,10,58,6.00
2015,02,18,10,59,6.10
2015,02,18,11,00,6.10
2015,02,18,11,01,6.10
2015,02,18,11,02,6.20
2015,02,18,11,03,6.20
2015,02,18,11,04,6.20
2015,02,18,11,05,6.30
2015,02,18,11,06,6.30
2015,02,18,11,07,6.30
2015,02,18,11,08,6.30
2015,02,18,11,09,6.30
2015,02,18,11,10,6.30
2015,02,18,11,11,6.30
2015,02,18,11,12,6.30
2015,02,18,11,13,6.30
2015,02,18,11,14,6.30
2015,02,18,11,15,6.30
2015,02,18,11,16,6.30
2015,02,18,11,17,6.30
2015,02,18,11,18,6.30
2015,02,18,11,19,6.30
2015,02,18,11,20,6.40
2015,02,18,11,21,6.40
2015,02,18,11,22,6.40
2015,02,18,11,23,6.40
2015,02,18,11,24,6.40
2015,02,18,11,25,6.50
2015,02,18,11,26,6.50
2015,02,18,11,27,6.50
2015,02,18,11,28,6.60
2015,02,18,11,29,6.60
2015,02,18,11,30,6.60
2015,02,18,11,31,6.60
2015,02,18,11,32,6.60
2015,02,18,11,33,6.70
2015,02,18,11,34,6.70
2015,02,18,11,35,6.70
2015,02,18,11,36,6.70
2015,02,18,11,37,6.80
2015,02,18,11,38,6.80
2015,02,18,11,39,6.80
2015,02,18,11,40,6.80
2015,02,18,11,41,6.80
2015,02,18,11,42,6.80
2015,02,18,11,43,6.80
2015,02,18,11,44,6.80
2015,02,18,11,45,6.80
2015,02,18,11,46,6.80
2015,02,18,11,47,6.90
2015,02,18,11,48,6.90
2015,02,18,11,49,6.90
2015,02,18,11,50,6.90
2015,02,18,11,51,6.90
2015,02,18,11,52,6.90
2015,02,18,11,53,6.90
2015,02,18,11,54,6.90
2015,02,18,11,55,6.90
2015,02,18,11,56,6.90
2015,02,18,11,57,6.90
2015,02,18,11,58,6.90
2015,02,18,11,59,6.90
2015,02,18,12,00,6.90
2015,02,18,12,01,6.90
2015,02,18,12,02,6.90
2015,02,18,12,03,6.90
2015,02,18,12,04,6.90
2015,02,18,12,05,7.00
2015,02,18,12,06,7.00
2015,02,18,12,07,7.00
2015,02,18,12,08,7.00
2015,02,18,12,09,7.10
2015,02,18,12,10,7.10
2015,02,18,12,11,7.10
2015,02,18,12,12,7.10
2015,02,18,12,13,7.10
2015,02,18,12,14,7.20
2015,02,18,12,15,7.20
2015,02,18,12,16,7.20
2015,02,18,12,17,7.20
2015,02,18,12,18,7.20
2015,02,18,12,19,7.20
2015,02,18,12,20,7.20
2015,02,18,12,21,7.20
2015,02,18,12,22,7.20
2015,02,18,12,23,7.20
2015,02,18,12,24,7.20
2015,02,18,12,25,7.20
2015,02,18,12,26,7.20
2015,02,18,12,27,7.20
2015,02,18,12,28,7.30
2015,02,18,12,29,7.30
2015,02,18,12,30,7.30
2015,02,18,12,31,7.30
2015,02,18,12,32,7.30
2015,02,18,12,33,7.30
2015,02,18,12,34,7.30
2015,02,18,12,35,7.30
2015,02,18,12,36,7.40
2015,02,18,12,37,7.40
2015,02,18,12,38,7.40
2015,02,18,12,39,7.40
2015,02,18,12,40,7.40
2015,02,18,12,41,7.40
2015,02,18,12,42,7.40
2015,02,18,12,43,7.50
2015,02,18,12,44,7.50
2015,02,18,12,45,7.50
2015,02,18,12,46,7.60
2015,02,18,12,47,7.60
2015,02,18,12,48,7.60
2015,02,18,12,49,7.60
2015,02,18,12,50,7.70
2015,02,18,12,51,7.70
2015,02,18,12,52,7.70
2015,02,18,12,53,7.70
2015,02,18,12,54,7.70
2015,02,18,12,55,7.70
2015,02,18,12,56,7.70
2015,02,18,12,57,7.70
2015,02,18,12,58,7.70
2015,02,18,12,59,7.70
2015,02,18,13,00,7.70
2015,02,18,13,01,7.70
2015,02,18,13,02,7.70
2015,02,18,13,03,7.80
2015,02,18,13,04,7.80
2015,02,18,13,05,7.80
2015,02,18,13,06,7.90
2015,02,18,13,07,7.90
2015,02,18,13,08,7.90
2015,02,18,13,09,7.90
2015,02,18,13,10,8.00
2015,02,18,13,11,8.00
2015,02,18,13,12,8.00
2015,02,18,13,13,8.10
2015,02,18,13,14,8.10
2015,02,18,13,15,8.10
2015,02,18,13,16,8.10
2015,02,18,13,17,8.10
2015,02,18,13,18,8.20
2015,02,18,13,19,8.20
2015,02,18,13,20,8.20
2015,02,18,13,21,8.20
2015,02,18,13,22,8.30
2015,02,18,13,23,8.30
2015,02,18,13,24,8.30
2015,02,18,13,25,8.30
2015,02,18,13,26,8.30
2015,02,18,13,27,8.30
2015,02,18,13,28,8.30
2015,02,18,13,29,8.30
2015,02,18,13,30,8.30
2015,02,18,13,31,8.40
2015,02,18,13,32,8.40
2015,02,18,13,33,8.40
2015,02,18,13,34,8.40
2015,02,18,13,35,8.40
2015,02,18,13,36,8.40
2015,02,18,13,37,8.40
2015,02,18,13,38,8.50
2015,02,18,13,39,8.50
2015,02,18,13,40,8.50
2015,02,18,13,41,8.60
2015,02,18,13,42,8.60
2015,02,18,13,43,8.60
2015,02,18,13,44,8.60
2015,02,18,13,45,8.60
2015,02,18,13,46,8.60
2015,02,18,13,47,8.60
2015,02,18,13,48,8.70
2015,02,18,13,49,8.70
2015,02,18,13,50,8.70
2015,02,18,13,51,8.70
2015,02,18,13,52,8.60
2015,02,18,13,53,8.60
2015,02,18,13,54,8.60
2015,02,18,13,55,8.60
2015,02,18,13,56,8.60
2015,02,18,13,57,8.60
2015,02,18,13,58,8.60
2015,02,18,13,59,8.60
2015,02,18,14,00,8.50
2015,02,18,14,01,8.50
2015,02,18,14,02,8.50
2015,02,18,14,03,8.40
2015,02,18,14,04,8.40
2015,02,18,14,05,8.30
2015,02,18,14,06,8.30
2015,02,18,14,07,8.30
2015,02,18,14,08,8.20
2015,02,18,14,09,8.20
2015,02,18,14,10,8.20
2015,02,18,14,11,8.20
2015,02,18,14,12,8.10
2015,02,18,14,13,8.10
2015,02,18,14,14,8.10
2015,02,18,14,15,8.10
2015,02,18,14,16,8.10
2015,02,18,14,17,8.10
2015,02,18,14,18,8.10
2015,02,18,14,19,8.10
2015,02,18,14,20,8.10
2015,02,18,14,21,8.10
2015,02,18,14,22,8.10
2015,02,18,14,23,8.10
2015,02,18,14,24,8.10
2015,02,18,14,25,8.10
2015,02,18,14,26,8.10
2015,02,18,14,27,8.10
2015,02,18,14,28,8.10
2015,02,18,14,29,8.10
2015,02,18,14,30,8.10
2015,02,18,14,31,8.10
2015,02,18,14,32,8.10
2015,02,18,14,33,8.10
2015,02,18,14,34,8.10
2015,02,18,14,35,8.10
2015,02,18,14,36,8.10
2015,02,18,14,37,8.10
2015,02,18,14,38,8.10
2015,02,18,14,39,8.10
2015,02,18,14,40,8.10
2015,02,18,14,41,8.10
2015,02,18,14,42,8.10
2015,02,18,14,43,8.00
2015,02,18,14,44,8.00
2015,02,18,14,45,8.00
2015,02,18,14,46,8.00
2015,02,18,14,47,8.00
2015,02,18,14,48,8.00
2015,02,18,14,49,7.90
2015,02,18,14,50,7.90
2015,02,18,14,51,7.90
2015,02,18,14,52,7.90
2015,02,18,14,53,7.90
2015,02,18,14,54,7.90
2015,02,18,14,55,7.90
2015,02,18,14,56,7.90
2015,02,18,14,57,7.90
2015,02,18,14,58,8.00
2015,02,18,14,59,8.00
2015,02,18,15,00,8.00
2015,02,18,15,01,8.00
2015,02,18,15,02,8.00
2015,02,18,15,03,8.00
2015,02,18,15,04,8.00
2015,02,18,15,05,8.10
2015,02,18,15,06,8.10
2015,02,18,15,07,8.10
2015,02,18,15,08,8.00
2015,02,18,15,09,8.00
2015,02,18,15,10,8.00
2015,02,18,15,11,8.00
2015,02,18,15,12,8.00
2015,02,18,15,13,7.90
2015,02,18,15,14,7.90
2015,02,18,15,15,7.90
2015,02,18,15,16,7.90
2015,02,18,15,17,7.90
2015,02,18,15,18,7.90
2015,02,18,15,19,7.90
2015,02,18,15,20,7.90
2015,02,18,15,21,7.90
2015,02,18,15,22,7.90
2015,02,18,15,23,7.90
2015,02,18,15,24,7.90
2015,02,18,15,25,7.90
2015,02,18,15,26,7.90
2015,02,18,15,27,7.90
2015,02,18,15,28,7.90
2015,02,18,15,29,7.90
2015,02,18,15,30,7.90
2015,02,18,15,31,7.90
2015,02,18,15,32,7.90
2015,02,18,15,33,7.90
2015,02,18,15,34,7.90
2015,02,18,15,35,7.90
2015,02,18,15,36,8.00
2015,02,18,15,37,8.00
2015,02,18,15,38,8.00
2015,02,18,15,39,8.00
2015,02,18,15,40,8.00
2015,02,18,15,41,8.00
2015,02,18,15,42,8.00
2015,02,18,15,43,8.00
2015,02,18,15,44,8.00
2015,02,18,15,45,8.10
2015,02,18,15,46,8.10
2015,02,18,15,47,8.10
2015,02,18,15,48,8.10
2015,02,18,15,49,8.10
2015,02,18,15,50,8.10
2015,02,18,15,51,8.10
2015,02,18,15,52,8.10
2015,02,18,15,53,8.10
2015,02,18,15,54,8.10
2015,02,18,15,55,8.10
2015,02,18,15,56,8.10
2015,02,18,15,57,8.10
2015,02,18,15,58,8.10
2015,02,18,15,59,8.20
2015,02,18,16,00,8.20
2015,02,18,16,01,8.20
2015,02,18,16,02,8.20
2015,02,18,16,03,8.20
2015,02,18,16,04,8.20
2015,02,18,16,05,8.20
2015,02,18,16,06,8.20
2015,02,18,16,07,8.20
2015,02,18,16,08,8.20
2015,02,18,16,09,8.20
2015,02,18,16,10,8.20
2015,02,18,16,11,8.20
2015,02,18,16,12,8.20
2015,02,18,16,13,8.20
2015,02,18,16,14,8.20
2015,02,18,16,15,8.20
2015,02,18,16,16,8.20
2015,02,18,16,17,8.20
2015,02,18,16,18,8.20
2015,02,18,16,19,8.20
2015,02,18,16,20,8.20
2015,02,18,16,21,8.20
2015,02,18,16,22,8.20
2015,02,18,16,23,8.20
2015,02,18,16,24,8.20
2015,02,18,16,25,8.20
2015,02,18,16,26,8.20
2015,02,18,16,27,8.20
2015,02,18,16,28,8.20
2015,02,18,16,29,8.20
2015,02,18,16,30,8.20
2015,02,18,16,31,8.20
2015,02,18,16,32,8.20
2015,02,18,16,33,8.20
2015,02,18,16,34,8.20
2015,02,18,16,35,8.20
2015,02,18,16,36,8.20
2015,02,18,16,37,8.20
2015,02,18,16,38,8.20
2015,02,18,16,39,8.20
2015,02,18,16,40,8.20
2015,02,18,16,41,8.20
2015,02,18,16,42,8.20
2015,02,18,16,43,8.20
2015,02,18,16,44,8.20
2015,02,18,16,45,8.30
2015,02,18,16,46,8.20
2015,02,18,16,47,8.20
2015,02,18,16,48,8.20
2015,02,18,16,49,8.20
2015,02,18,16,50,8.20
2015,02,18,16,51,8.20
2015,02,18,16,52,8.20
2015,02,18,16,53,8.20
2015,02,18,16,54,8.20
2015,02,18,16,55,8.20
2015,02,18,16,56,8.20
2015,02,18,16,57,8.20
2015,02,18,16,58,8.20
2015,02,18,16,59,8.20
2015,02,18,17,00,8.20
2015,02,18,17,01,8.20
2015,02,18,17,02,8.20
2015,02,18,17,03,8.20
2015,02,18,17,04,8.20
2015,02,18,17,05,8.20
2015,02,18,17,06,8.20
2015,02,18,17,07,8.10
2015,02,18,17,08,8.10
2015,02,18,17,09,8.10
2015,02,18,17,10,8.10
2015,02,18,17,11,8.10
2015,02,18,17,12,8.10
2015,02,18,17,13,8.10
2015,02,18,17,14,8.10
2015,02,18,17,15,8.10
2015,02,18,17,16,8.10
2015,02,18,17,17,8.10
2015,02,18,17,18,8.10
2015,02,18,17,19,8.10
2015,02,18,17,20,8.10
2015,02,18,17,21,8.10
2015,02,18,17,22,8.10
2015,02,18,17,23,8.10
2015,02,18,17,24,8.10
2015,02,18,17,25,8.10
2015,02,18,17,26,8.10
2015,02,18,17,27,8.10
2015,02,18,17,28,8.10
2015,02,18,17,29,8.00
2015,02,18,17,30,8.00
2015,02,18,17,31,8.00
2015,02,18,17,32,8.00
2015,02,18,17,33,8.00
2015,02,18,17,34,8.00
2015,02,18,17,35,8.00
2015,02,18,17,36,8.00
2015,02,18,17,37,7.90
2015,02,18,17,38,7.90
2015,02,18,17,39,7.90
2015,02,18,17,40,7.90
2015,02,18,17,41,7.90
2015,02,18,17,42,7.90
2015,02,18,17,43,7.90
2015,02,18,17,44,7.90
2015,02,18,17,45,7.90
2015,02,18,17,46,7.90
2015,02,18,17,47,7.80
2015,02,18,17,48,7.80
2015,02,18,17,49,7.80
2015,02,18,17,50,7.80
2015,02,18,17,51,7.80
2015,02,18,17,52,7.80
2015,02,18,17,53,7.80
2015,02,18,17,54,7.70
2015,02,18,17,55,7.70
2015,02,18,17,56,7.70
2015,02,18,17,57,7.70
2015,02,18,17,58,7.70
2015,02,18,17,59,7.70
2015,02,18,18,00,7.70
2015,02,18,18,01,7.60
2015,02,18,18,02,7.60
2015,02,18,18,03,7.60
2015,02,18,18,04,7.60
2015,02,18,18,05,7.60
2015,02,18,18,06,7.60